OPS 4682 DEB, 55121

Orbit data source: Space-Track

OPS 4682 DEB, 55121 is space debris in LEO originally from a launch on Sat, 03 Apr 1965 UTC launched from the Air Force Western Test Range (AFWTR). Debris objects in space refer to the collection of defunct objects orbiting the Earth. Examples of debris include non-operational satellites, rocket bodies, and fragments generated from explosions, collisions, or faulty payload assembly.

Loading next visibility...
Identifier
55121, 1965-027HL
Orbit
LEO
Country
Flag of USUS
Related business
Manufacturer
Unknown
Mission
Spacecraft
Bus & Motor
Unknown
Mass
Unknown
Launch date (UTC)
1965-04-03 (61 years ago)
Launch vehicle
Unknown
Launch site
Air Force Western Test Range (AFWTR)
Object type
Payload
Rocket body
Debris
Shape & HBR
Unknown shape, 0.1 m
Radar Cross Section
Medium (>0.1 m² and <1 m²)

Expand to show TLE details & history
Last TLE update: 4 days ago

TLE from 4 days ago
0 OPS 4682 DEB
1 55121U 65027HL  26250.56575769  .00000355  00000-0  11278-2 0  9993
2 55121  90.2471   8.4930 0039201 112.5634 247.9644 13.01332041464334
Epoch: 2026-09-07T13:34Z
TLE epoch observation values (Epoch: 2026-09-07T13:34:41.464Z)
Latitude
-0.00005°
Longitude
178.17554°
Altitude
1,271.09 km
Speed
7.215 km/s
True Right ascension
00h 33m 58s
True Declination
0° 00' 00"
Sunlit
Object was in full shadow at epoch
Visualization orbit readout
Latitude
Unknown
Longitude
Unknown
Altitude
Unknown
Speed
Unknown
Apparent Right ascension
Unknown
Apparent Declination
Unknown
Sunlit
N/A
Visualization observer readout
Local Sidereal Time
15:42:18
Azimuth
Unknown
Elevation
Unknown
Doppler factor
Unknown
Orbital elements
Apogee altitude
1,283.916 km
Perigee altitude
1,224.078 km
Semi-major axis
7,632.134 km
Eccentricity
0.00392
Inclination
90.2471°
RAAN
8.493°
Arg. of periapsis
112.5634°
True anomaly
247.54877°
Mean anomaly
247.9644°
Eccentric anomaly
247.75651°
Mean motion
3.25517 °/min
Orbital period
110.59 mins
BSTAR
0.0011278
Loading maneuver chart data...
Computing Atmospheric mass density...
Loading historical data...
Loading historical data...
Loading historical data...
Loading historical data...
Loading historical data...
Loading historical data...
Loading historical data...

Documentation

Showing up to 5 results
|